Location: Newark
(13.8117°N, 3.6025°W)
Time: 08:52:41
(UTC+00:00)

Altair - Visible Passes

Search period start: 22 August 2019 00:00
Search period end: 01 September 2019 00:00
Orbit: 1501 x 1683 km, 47.2° (Epoch: 21 August)

Date Brightness Start Highest point End Pass type
(mag) Time Alt. Az. Time Alt. Az. Time Alt. Az.
22 Aug 9.5 01:20:12 17° NE 01:20:12 17° NE 01:21:56 10° NE visible
22 Aug 8.8 03:18:13 25° NNW 03:18:13 25° NNW 03:24:57 10° NNE visible
23 Aug 9.7 00:56:22 11° NE 00:56:22 11° NE 00:56:44 10° NE visible
23 Aug 8.8 02:54:23 25° NNW 02:54:23 25° NNW 03:00:02 10° NNE visible
24 Aug 9.0 02:30:30 24° N 02:30:30 24° N 02:35:06 10° NNE visible
25 Aug 9.2 02:06:36 22° N 02:06:36 22° N 02:10:07 10° NNE visible
26 Aug 9.4 01:42:40 19° NNE 01:42:40 19° NNE 01:45:07 10° NNE visible
27 Aug 9.6 01:18:43 15° NNE 01:18:43 15° NNE 01:20:06 10° NNE visible
28 Aug 9.8 00:54:45 11° NNE 00:54:45 11° NNE 00:55:04 10° NNE visible
28 Aug 9.5 02:52:44 11° NNW 02:52:44 11° NNW 02:55:05 10° NNW visible
29 Aug 9.5 02:28:45 12° NNW 02:28:45 12° NNW 02:30:50 10° N visible
30 Aug 9.6 02:04:44 12° N 02:04:44 12° N 02:06:18 10° N visible
31 Aug 9.7 01:40:42 12° N 01:40:42 12° N 01:41:37 10° N visible
